This is the latest recevied weather packets stored in our database for station/object KC8JWT. If no packets are shown the sender has not sent any weather packets the latest 10 day(s).
| Time | Temp. | Humidity | Pressure | Rain* | Wind** | Luminosity | Snow |
|---|---|---|---|---|---|---|---|
| 1777402187 | 23.33° C | 83% | 1014.6 hPa | 0 mm | - | 832 W/m² | - |
| 1777401882 | 22.78° C | 84% | 1014.1 hPa | 0 mm | - | 706 W/m² | - |
| 1777401581 | 22.78° C | 85% | 1014.4 hPa | 0 mm | - | 765 W/m² | - |
| 1777401278 | 22.22° C | 86% | 1014.3 hPa | 0 mm | - | 925 W/m² | - |
| 1777400973 | 21.67° C | 88% | 1014.4 hPa | 0 mm | - | 775 W/m² | - |
| 1777400669 | 21.11° C | 90% | 1014.7 hPa | 0 mm | - | 526 W/m² | - |
| 1777400367 | 21.67° C | 90% | 1014.6 hPa | 0 mm | - | 395 W/m² | - |
| 1777400062 | 21.11° C | 92% | 1014.7 hPa | 0 mm | - | 340 W/m² | - |
| 1777399760 | 20.56° C | 93% | 1014.7 hPa | 0 mm | - | 254 W/m² | - |
| 1777399456 | 20° C | 94% | 1014.8 hPa | 0 mm | - | 375 W/m² | - |
| 1777399155 | 20° C | 96% | 1014.7 hPa | 0 mm | - | 385 W/m² | - |
| 1777398851 | 19.44° C | 98% | 1014.8 hPa | 0 mm | - | 292 W/m² | - |
| 1777398549 | 20° C | 97% | 1014.6 hPa | 0 mm | - | 341 W/m² | - |
| 1777398245 | 20° C | 97% | 1015 hPa | 0 mm | - | 386 W/m² | - |
| 1777397942 | 19.44° C | 95% | 1014.9 hPa | 0 mm | - | 308 W/m² | - |
| 1777397637 | 20° C | 95% | 1014.7 hPa | 0 mm | - | 245 W/m² | - |
| 1777397334 | 19.44° C | 95% | 1014.8 hPa | 0 mm | - | 342 W/m² | - |
| 1777397030 | 19.44° C | 94% | 1015 hPa | 0 mm | - | 260 W/m² | - |
| 1777396727 | 19.44° C | 94% | 1015 hPa | 0 mm | - | 296 W/m² | - |
| 1777396424 | 19.44° C | 96% | 1015.2 hPa | 0 mm | - | 396 W/m² | - |
| 1777396121 | 18.89° C | 96% | 1015 hPa | 0 mm | - | 285 W/m² | - |
| 1777395817 | 18.89° C | 96% | 1014.9 hPa | 0 mm | - | 237 W/m² | - |
| 1777395512 | 18.89° C | 95% | 1014.9 hPa | 0 mm | - | 158 W/m² | - |
| 1777395209 | 18.89° C | 96% | 1015 hPa | 0 mm | - | 209 W/m² | - |
| 1777394907 | 18.33° C | 96% | 1015.1 hPa | 0 mm | - | 175 W/m² | - |
* Rain latest hour (hover to see other rain measurements)
** Current wind speed in m/s (hover to see current wind gust speed)